Location: Poughquag
(41.6090°N, 73.6820°W)
Time: 18:09:06
(UTC-05:00)

A-11 Canister half - Pass Details

Date: 12 December 2023
Orbit: 1526 x 1682 km, 47.3° (Epoch: 23 February)

Event Time Altitude Azimuth Distance (km) Brightness Sun altitude
Rises 20:37:36 0° 285° (WNW) 4,935 12.4 -46.3°
Reaches altitude 10° 20:40:50 10° 288° (WNW) 3,946 11.7 -46.9°
Enters shadow 20:47:19 44° 305° (NW) 2,198 9.9 -48.1°
